TimeEDT,TemperatureF,Dew PointF,Humidity,Sea Level PressureIn,VisibilityMPH,Wind Direction,Wind SpeedMPH,Gust SpeedMPH,PrecipitationIn,Events,Conditions,WindDirDegrees,DateUTC
12:53 AM,66.9,62.1,84,30.19,10.0,ENE,3.5,-,N/A,,Partly Cloudy,70,2013-04-28 04:53:00
1:53 AM,64.9,61.0,87,30.15,10.0,Calm,Calm,-,N/A,,Clear,0,2013-04-28 05:53:00
2:53 AM,66.0,62.1,87,30.12,10.0,East,3.5,-,N/A,,Clear,80,2013-04-28 06:53:00
3:53 AM,64.0,60.1,87,30.11,10.0,SSE,3.5,-,N/A,,Scattered Clouds,160,2013-04-28 07:53:00
4:53 AM,64.9,61.0,87,30.11,10.0,Calm,Calm,-,N/A,,Mostly Cloudy,0,2013-04-28 08:53:00
5:53 AM,66.9,62.1,84,30.11,10.0,Calm,Calm,-,N/A,,Mostly Cloudy,0,2013-04-28 09:53:00
6:53 AM,68.0,63.0,84,30.12,10.0,SE,5.8,-,N/A,,Scattered Clouds,140,2013-04-28 10:53:00
7:53 AM,69.1,64.0,84,30.14,10.0,East,3.5,-,N/A,,Mostly Cloudy,80,2013-04-28 11:53:00
8:53 AM,73.0,64.0,73,30.16,10.0,ESE,3.5,-,N/A,,Mostly Cloudy,120,2013-04-28 12:53:00
9:53 AM,73.9,62.1,66,30.17,10.0,SE,5.8,-,N/A,,Overcast,130,2013-04-28 13:53:00
10:53 AM,77.0,61.0,58,30.17,10.0,SE,10.4,-,N/A,,Mostly Cloudy,130,2013-04-28 14:53:00
11:53 AM,79.0,60.1,52,30.14,10.0,ESE,13.8,20.7,N/A,,Partly Cloudy,110,2013-04-28 15:53:00
12:53 PM,80.1,60.1,50,30.12,10.0,SE,15.0,20.7,N/A,,Clear,140,2013-04-28 16:53:00
1:53 PM,80.1,60.1,50,30.11,10.0,SE,15.0,20.7,N/A,,Clear,140,2013-04-28 17:53:00
2:53 PM,79.0,61.0,54,30.10,10.0,ESE,13.8,21.9,N/A,,Partly Cloudy,110,2013-04-28 18:53:00
3:53 PM,80.1,60.1,50,30.06,10.0,SE,15.0,25.3,N/A,,Clear,130,2013-04-28 19:53:00
4:53 PM,79.0,61.0,54,30.05,10.0,SE,13.8,24.2,N/A,,Clear,130,2013-04-28 20:53:00
5:53 PM,77.0,60.1,56,30.04,10.0,SSE,16.1,24.2,N/A,,Clear,150,2013-04-28 21:53:00
6:53 PM,75.9,61.0,60,30.03,10.0,SSE,17.3,23.0,N/A,,Clear,150,2013-04-28 22:53:00
7:53 PM,73.9,62.1,66,30.03,10.0,SSE,11.5,-,N/A,,Clear,160,2013-04-28 23:53:00
8:53 PM,73.0,63.0,71,30.03,10.0,SE,11.5,-,N/A,,Clear,140,2013-04-29 00:53:00
9:53 PM,72.0,63.0,73,30.02,10.0,SSE,9.2,-,N/A,,Clear,150,2013-04-29 01:53:00
10:53 PM,71.1,62.1,73,30.04,10.0,SSE,6.9,-,N/A,,Clear,160,2013-04-29 02:53:00
11:53 PM,70.0,62.1,76,30.04,10.0,South,5.8,-,N/A,,Clear,170,2013-04-29 03:53:00